DW5941 Weather Reports


time (UTC)temp
F
wind
direction
speed
knots
gust
knots
rain 1hr
in
rain 24hr
in
rain mn
in
humidity
%
barometer
mb
20260504050553 55 350 7.8 0.0 0.00 0.00 0.00 40 1004.2
20260504045552 55 355 6.1 0.0 0.00 0.00 0.00 42 1004.2
20260504045052 56 348 6.1 0.0 0.00 0.00 0.00 42 1004.2
20260504044555 56 341 6.1 0.0 0.00 0.00 0.00 41 1004.0
20260504044052 56 341 7.0 0.0 0.00 0.00 0.00 40 1004.0
20260504043552 57 331 9.6 0.0 0.00 0.00 0.00 40 1004.1
20260504043058 58 318 10.4 0.0 0.00 0.00 0.00 38 1004.2
20260504042553 58 338 10.4 0.0 0.00 0.00 0.00 38 1004.2
20260504042052 57 299 8.7 0.0 0.00 0.00 0.00 39 1004.2
20260504041552 57 324 7.8 0.0 0.00 0.00 0.00 40 1003.9
20260504041052 57 323 7.0 0.0 0.00 0.00 0.00 39 1003.8
20260504040552 58 306 7.0 0.0 0.00 0.00 0.00 39 1003.8
20260504040123 58 309 7.0 0.0 0.00 0.00 0.00 39 1003.7
20260504035552 59 321 7.8 0.0 0.00 0.00 0.00 38 1003.6
20260504035053 59 313 8.7 0.0 0.00 0.00 0.00 37 1003.4
20260504034556 59 312 8.7 0.0 0.00 0.00 0.00 37 1003.4
20260504034051 60 321 9.6 0.0 0.00 0.00 0.00 36 1003.3
20260504033552 60 337 11.3 0.0 0.00 0.00 0.00 36 1003.1
20260504033052 60 11 13.0 0.0 0.00 0.00 0.00 36 1002.8
20260504032551 60 335 13.9 0.0 0.00 0.00 0.00 36 1002.8
20260504032051 61 355 14.8 0.0 0.00 0.00 0.00 35 1002.6
20260504031600 61 327 15.6 0.0 0.00 0.00 0.00 34 1002.5
20260504031052 62 325 17.4 0.0 0.00 0.00 0.00 34 1002.4
20260504030551 63 340 16.5 0.0 0.00 0.00 0.00 33 1002.2
20260504030051 65 334 10.4 0.0 0.00 0.00 0.00 31 1002.1
20260504025554 65 268 7.8 0.0 0.00 0.00 0.00 32 1001.3
20260504025055 65 342 7.0 0.0 0.00 0.00 0.00 32 1001.2
20260504024551 65 284 7.0 0.0 0.00 0.00 0.00 32 1001.2
20260504024050 65 325 7.8 0.0 0.00 0.00 0.00 32 1001.2
20260504023550 66 302 7.0 0.0 0.00 0.00 0.00 32 1001.2
20260504023050 66 284 7.8 0.0 0.00 0.00 0.00 31 1001.1
20260504022551 66 285 7.8 0.0 0.00 0.00 0.00 31 1001.1
20260504022050 66 265 8.7 0.0 0.00 0.00 0.00 31 1001.0
20260504021551 67 264 7.8 0.0 0.00 0.00 0.00 31 1001.0
20260504021050 67 321 7.8 0.0 0.00 0.00 0.00 31 1001.1
20260504020550 68 292 8.7 0.0 0.00 0.00 0.00 30 1001.0
20260504020106 68 292 9.6 0.0 0.00 0.00 0.00 30 1000.9
20260504015552 68 309 9.6 0.0 0.00 0.00 0.00 30 1000.9
20260504015052 69 326 10.4 0.0 0.00 0.00 0.00 29 1000.9
20260504014550 69 273 11.3 0.0 0.00 0.00 0.00 29 1001.0
20260504014049 70 311 12.2 0.0 0.00 0.00 0.00 29 1000.9
20260504013550 70 326 12.2 0.0 0.00 0.00 0.00 28 1000.9
20260504013050 71 346 12.2 0.0 0.00 0.00 0.00 26 1000.8
20260504012550 71 283 11.3 0.0 0.00 0.00 0.00 26 1000.7
20260504012049 72 318 10.4 0.0 0.00 0.00 0.00 24 1000.8
20260504011550 72 254 13.0 0.0 0.00 0.00 0.00 23 1000.8
20260504011049 73 19 14.8 0.0 0.00 0.00 0.00 22 1000.8
20260504010549 73 288 15.6 0.0 0.00 0.00 0.00 21 1000.9
20260504010053 73 266 17.4 0.0 0.00 0.00 0.00 20 1000.9
20260504005549 74 261 17.4 0.0 0.00 0.00 0.00 21 1000.8
20260504005052 73 264 18.2 0.0 0.00 0.00 0.00 21 1000.8
20260504004549 73 261 20.0 0.0 0.00 0.00 0.00 20 1000.7
20260504004049 73 258 20.9 0.0 0.00 0.00 0.00 20 1000.8
20260504003548 74 258 20.0 0.0 0.00 0.00 0.00 20 1000.9
20260504003051 74 267 19.1 0.0 0.00 0.00 0.00 20 1001.1
20260504002547 74 258 19.1 0.0 0.00 0.00 0.00 20 1001.0
20260504002046 75 336 20.0 0.0 0.00 0.00 0.00 19 1001.2
20260504001552 74 271 19.1 0.0 0.00 0.00 0.00 19 1001.3
20260504001046 75 284 20.0 0.0 0.00 0.00 0.00 19 1001.3
20260504000547 75 272 20.0 0.0 0.00 0.00 0.00 19 1001.4
20260504000044 75 244 19.1 0.0 0.00 0.00 0.00 19 1001.3
20260503235544 75 290 19.1 0.0 0.00 0.00 0.00 19 1001.5
20260503235047 75 282 20.9 0.0 0.00 0.00 0.00 20 1001.6
20260503234602 75 251 21.7 0.0 0.00 0.00 0.00 19 1001.5
20260503234048 75 245 21.7 0.0 0.00 0.00 0.00 19 1001.7
20260503233547 76 298 19.1 0.0 0.00 0.00 0.00 19 1001.7
20260503233048 75 263 17.4 0.0 0.00 0.00 0.00 21 1001.7
20260503232543 75 269 17.4 0.0 0.00 0.00 0.00 21 1001.7
20260503232042 75 259 20.9 0.0 0.00 0.00 0.00 22 1001.9
20260503231542 75 262 21.7 0.0 0.00 0.00 0.00 21 1002.0
20260503231041 76 241 19.1 0.0 0.00 0.00 0.00 21 1001.8
20260503230544 74 252 19.1 0.0 0.00 0.00 0.00 22 1002.3
20260503230041 75 234 20.0 0.0 0.00 0.00 0.00 22 1002.4
20260503225538 75 257 20.9 0.0 0.00 0.00 0.00 22 1002.6
20260503225040 75 244 19.1 0.0 0.00 0.00 0.00 22 1002.8
20260503224538 76 245 18.2 0.0 0.00 0.00 0.00 21 1002.9
20260503224036 75 268 18.2 0.0 0.00 0.00 0.00 21 1002.9
20260503223535 75 248 17.4 0.0 0.00 0.00 0.00 21 1003.0
20260503223036 74 259 19.1 0.0 0.00 0.00 0.00 21 1003.2
20260503222538 74 243 17.4 0.0 0.00 0.00 0.00 20 1003.3
20260503222034 75 264 17.4 0.0 0.00 0.00 0.00 20 1003.3
20260503221537 75 269 16.5 0.0 0.00 0.00 0.00 19 1003.6
20260503221036 75 263 15.6 0.0 0.00 0.00 0.00 19 1003.7
20260503220535 75 253 17.4 0.0 0.00 0.00 0.00 19 1003.8
20260503220031 74 246 19.1 0.0 0.00 0.00 0.00 20 1004.0
20260503215531 74 254 18.2 0.0 0.00 0.00 0.00 19 1004.0
20260503215033 74 265 16.5 0.0 0.00 0.00 0.00 20 1004.1
20260503214530 73 261 18.2 0.0 0.00 0.00 0.00 21 1004.1
20260503214031 74 259 17.4 0.0 0.00 0.00 0.00 19 1004.2
20260503213528 73 254 16.5 0.0 0.00 0.00 0.00 21 1004.3
20260503213028 73 264 17.4 0.0 0.00 0.00 0.00 23 1004.6
20260503212528 73 268 17.4 0.0 0.00 0.00 0.00 24 1004.6
20260503212026 72 234 17.4 0.0 0.00 0.00 0.00 24 1004.8
20260503211526 73 252 17.4 0.0 0.00 0.00 0.00 23 1004.9
20260503211025 73 263 16.5 0.0 0.00 0.00 0.00 23 1005.0
20260503210526 72 248 16.5 0.0 0.00 0.00 0.00 22 1005.1
20260503210025 72 242 16.5 0.0 0.00 0.00 0.00 22 1005.1
20260503205524 73 296 17.4 0.0 0.00 0.00 0.00 25 1005.1
20260503205023 72 268 18.2 0.0 0.00 0.00 0.00 25 1005.3
20260503204524 72 246 16.5 0.0 0.00 0.00 0.00 26 1005.4
20260503204022 72 265 17.4 0.0 0.00 0.00 0.00 26 1005.4
20260503203522 72 266 17.4 0.0 0.00 0.00 0.00 25 1005.5
20260503203021 72 233 17.4 0.0 0.00 0.00 0.00 25 1005.6
20260503202522 72 255 17.4 0.0 0.00 0.00 0.00 23 1005.6
20260503202023 73 260 16.5 0.0 0.00 0.00 0.00 23 1005.6
20260503201521 74 250 17.4 0.0 0.00 0.00 0.00 22 1005.6
20260503201020 74 237 17.4 0.0 0.00 0.00 0.00 22 1005.8
20260503200520 74 266 17.4 0.0 0.00 0.00 0.00 23 1005.7
20260503200019 73 249 19.1 0.0 0.00 0.00 0.00 21 1005.9
20260503195519 73 246 19.1 0.0 0.00 0.00 0.00 22 1006.1
20260503195022 74 260 19.1 0.0 0.00 0.00 0.00 23 1006.2
20260503194517 74 248 19.1 0.0 0.00 0.00 0.00 23 1006.3
20260503194016 73 247 17.4 0.0 0.00 0.00 0.00 26 1006.3
20260503193519 73 241 17.4 0.0 0.00 0.00 0.00 27 1006.6
20260503193015 73 252 19.1 0.0 0.00 0.00 0.00 26 1006.8
20260503192514 73 267 19.1 0.0 0.00 0.00 0.00 25 1006.8
20260503192014 73 264 19.1 0.0 0.00 0.00 0.00 26 1007.0
20260503191512 73 250 19.1 0.0 0.00 0.00 0.00 22 1007.1
20260503191011 73 284 19.1 0.0 0.00 0.00 0.00 26 1007.2
20260503190510 73 252 18.2 0.0 0.00 0.00 0.00 26 1007.3
20260503190010 72 238 19.1 0.0 0.00 0.00 0.00 27 1007.5
20260503185509 72 265 20.0 0.0 0.00 0.00 0.00 27 1007.6
20260503185008 72 249 19.1 0.0 0.00 0.00 0.00 27 1007.7
20260503184514 72 246 16.5 0.0 0.00 0.00 0.00 26 1008.0
20260503184011 73 261 16.5 0.0 0.00 0.00 0.00 26 1008.2
20260503183506 72 247 17.4 0.0 0.00 0.00 0.00 27 1008.3
20260503183005 72 360 16.5 0.0 0.00 0.00 0.00 26 1008.4
20260503182506 72 266 16.5 0.0 0.00 0.00 0.00 27 1008.4
20260503182006 72 263 18.2 0.0 0.00 0.00 0.00 28 1008.6
20260503181506 71 286 19.1 0.0 0.00 0.00 0.00 27 1008.6
20260503181004 70 234 18.2 0.0 0.00 0.00 0.00 29 1008.8
20260503180503 71 255 18.2 0.0 0.00 0.00 0.00 27 1008.7
20260503180002 70 254 18.2 0.0 0.00 0.00 0.00 29 1008.8
20260503175500 71 236 17.4 0.0 0.00 0.00 0.00 29 1009.0
20260503175001 71 247 16.5 0.0 0.00 0.00 0.00 29 1009.1
20260503174601 71 252 16.5 0.0 0.00 0.00 0.00 29 1009.2
20260503174059 70 225 17.4 0.0 0.00 0.00 0.00 29 1009.4
20260503173558 69 235 17.4 0.0 0.00 0.00 0.00 29 1009.6
20260503173110 70 244 14.8 0.0 0.00 0.00 0.00 29 1009.6
20260503172057 69 221 16.5 0.0 0.00 0.00 0.00 29 1009.8
20260503171558 69 242 16.5 0.0 0.00 0.00 0.00 29 1009.9
20260503171055 69 240 16.5 0.0 0.00 0.00 0.00 30 1009.7
20260503170555 69 248 17.4 0.0 0.00 0.00 0.00 30 1010.0
20260503150539 63 222 17.4 0.0 0.00 0.00 0.00 32 1012.0
20260503131023 54 178 7.0 0.0 0.00 0.00 0.00 43 1012.9
20260503130518 53 187 7.0 0.0 0.00 0.00 0.00 44 1012.9
20260503110504 43 218 0.9 0.0 0.00 0.00 0.00 53 1013.8
20260503081542 35 85 0.0 0.0 0.00 0.00 0.00 69 1014.8
20260503081039 34 85 0.0 0.0 0.00 0.00 0.00 71 1014.9
20260503080542 33 85 0.9 0.0 0.00 0.00 0.00 70 1014.9
20260503072033 34 76 1.7 0.0 0.00 0.00 0.00 67 1014.9
20260503071545 34 76 0.9 0.0 0.00 0.00 0.00 67 1014.9
20260503071032 34 76 0.9 0.0 0.00 0.00 0.00 66 1015.0
20260503070532 34 76 1.7 0.0 0.00 0.00 0.00 66 1015.0